Regional Weather Roundup
Issued by NWS Northern Indiana

Home | Current Version | Previous Version | Text Only | Print | Product List | Glossary On
Versions: 1 2 3 4 5 6 7 8 9 10 11 12 13 14 15 16 17 18 19 20 21 22 23 24 25 26 27 28 29 30 31 32 33 34 35 36 37 38 39 40 41 42 43 44 45 46 47 48 49 50
755
ASUS43 KIWX 290010
RWRIWX

KIWX WEATHER ROUNDUP
NATIONAL WEATHER SERVICE NORTHERN INDIANA
800 PM EDT TUE MAR 28 2017

NOTE: "FAIR" INDICATES FEW OR NO CLOUDS BELOW 12,000 FEET WITH NO
SIGNIFICANT WEATHER AND/OR OBSTRUCTIONS TO VISIBILITY.

* THESE STATIONS ARE NOT UNDER NWS QUALITY CONTROL. THEY ALSO MAY NOT
  REPORT WEATHER SUCH AS PRECIPITATION OR FOG.

INZ001>027-290100-
NORTHERN INDIANA

CITY           SKY/WX    TMP DP  RH WIND       PRES   REMARKS
GARY*          CLOUDY    41  37  87 N9        30.18R
VALPARAISO     CLOUDY    41  39  93 N8        30.17R
6HR MIN TEMP:  41; 6HR MAX TEMP:  44;

MICHIGAN CITY* CLOUDY    37  37 100 N5        30.18R
LAPORTE*       CLOUDY    40  38  93 N9        30.16R
6HR MIN TEMP:  40; 6HR MAX TEMP:  44;

KNOX*          CLOUDY    41  30  65 N9        30.15R
SOUTH BEND     CLOUDY    43  39  86 N6        30.16R
6HR MIN TEMP:  43; 6HR MAX TEMP:  46;

ELKHART*       CLOUDY    46  39  76 NE8       30.15R
GOSHEN         CLOUDY    47  39  74 NE6       30.14R
6HR MIN TEMP:  47; 6HR MAX TEMP:  49;

MONTICELLO*    CLOUDY    46  41  83 N6        30.14R
6HR MIN TEMP:  46; 6HR MAX TEMP:  51;

LOGANSPORT*    CLOUDY    46  43  87 N6        30.14R
ROCHESTER*     CLOUDY    48  45  87 N3        30.14R
WARSAW*        CLOUDY    46  39  76 N6        30.14R
ANGOLA*        CLOUDY    45  32  61 NE6       30.14R
FORT WAYNE     CLOUDY    49  43  80 N9        30.13R
6HR MIN TEMP:  49; 6HR MAX TEMP:  51;

HUNTINGTON*    CLOUDY    48  44  87 N5        30.13R
6HR MIN TEMP:  47; 6HR MAX TEMP:  51;

MARION*        CLOUDY    48  45  87 N7        30.13R FOG
6HR MIN TEMP:  26; 6HR MAX TEMP:  75;


$$
INZ028>050-290100-
CENTRAL INDIANA

CITY           SKY/WX    TMP DP  RH WIND       PRES   REMARKS
LAFAYETTE      CLOUDY    47  41  80 NE6       30.13R
6HR MIN TEMP:  47; 6HR MAX TEMP:  52;

KOKOMO*        CLOUDY    48  45  89 N9        30.13R
6HR MIN TEMP:  48; 6HR MAX TEMP:  53;

MUNCIE*        CLOUDY    51  47  86 NE8       30.11R
6HR MIN TEMP:  51; 6HR MAX TEMP:  54;

INDIANAPOLIS   CLOUDY    53  45  74 N10       30.10R
6HR MIN TEMP:  53; 6HR MAX TEMP:  58;


$$
MIZ043>046-050>051-056>058-064>065-071>073-077>080-290100-
SOUTHWEST LOWER MICHIGAN

CITY           SKY/WX    TMP DP  RH WIND       PRES   REMARKS
BATTLE CREEK   CLEAR     44  36  73 NE3       30.16R
6HR MIN TEMP:  44; 6HR MAX TEMP:  47;

BENTON HARBOR  CLOUDY    40  35  83 VRB3      30.17R
6HR MIN TEMP:  40; 6HR MAX TEMP:  43;

COLDWATER*     CLOUDY    44  39  80 N8        30.15R
6HR MIN TEMP:  44; 6HR MAX TEMP:  47;

HILLSDALE*     CLOUDY    41  36  81 NE7       30.14R
HOLLAND        CLEAR     41  36  82 W5        30.17R
6HR MIN TEMP:  41; 6HR MAX TEMP:  49;

GRAND RAPIDS   PTCLDY    47  39  74 SE3       30.15R
6HR MIN TEMP:  46; 6HR MAX TEMP:  52;

KALAMAZOO      PTCLDY    45  36  70 N7        30.17R
6HR MIN TEMP:  45; 6HR MAX TEMP:  48;

STURGIS*       CLOUDY    45  39  80 E6        30.14R
6HR MIN TEMP:  45; 6HR MAX TEMP:  47;

THREE RIVERS*  CLOUDY    46  39  77 NE5       30.15R
6HR MIN TEMP:  46; 6HR MAX TEMP:  47;


$$
OHZ001>008-015>018-024>025-290100-
NORTHWEST OHIO

CITY           SKY/WX    TMP DP  RH WIND       PRES   REMARKS
WAUSEON*       CLOUDY    46  41  81 NE8       30.14R
DEFIANCE       CLOUDY    47  39  74 NE8       30.13R
6HR MIN TEMP:  47; 6HR MAX TEMP:  50;

FINDLAY        CLOUDY    48  39  71 NE9       30.12R
6HR MIN TEMP:  48; 6HR MAX TEMP:  50;

TOLEDO EXPRESS CLOUDY    46  40  79 N12       30.14R
6HR MIN TEMP:  46; 6HR MAX TEMP:  49;

TOLEDO METCALF CLOUDY    47  40  76 E3        30.15R
6HR MIN TEMP:  47; 6HR MAX TEMP:  50;

LIMA           CLOUDY    48  44  86 NE7       30.11R
6HR MIN TEMP:  48; 6HR MAX TEMP:  49;


$$
AND FOR LAKE MICHIGAN COASTAL AND OPEN LAKE BUOY OBSERVATIONS

STATION/POSITION TEMP    WIND        PRES    VSBY  WAVE
                 AIR SEA DIR/SP/G                  HT/PER
                 (F)     (DEG/KT/KT) (MB)    (MI)  (FT/S)
CALUMET HARBOR    38     350/  9/ 12 1021.3R
MICHIGAN CITY     38      20/  7/  7   N/A
BURNS HARBOR      39      30/  6/  7 1022.4R

$$
&&




USA.gov is the U.S. government's official web portal to all federal, state and local government web resources and services.